カタログに戻る

STARLINK-5317

運用中通信VLEO
NORAD 55283·PAYLOAD·🇺🇸 United States

打ち上げ Jan 19, 2023 から Vandenberg Space Force Base

Loading…

次のパス (今後24時間)

TLE

最新Source: CelesTrak SupGP

元期: Sep 14, 2026, 22:24 UTC

1 55283C 23010Q   26257.93381944  .00074681  00000+0  62585-2 0  2572
2 55283  69.9989 287.2586 0003845 265.7091 105.4794 14.98291103    12

AllMySatでSTARLINK-5317をリアルタイム追跡

Download on the App Store